Torna al catalogo

DMSP 5D-2 F13 DEB

AttivoSSO
NORAD 40673·DEBRIS·🇺🇸 United States

Lanciato Mar 24, 1995 da Vandenberg Space Force Base

Loading…

Prossimi Passaggi (prossime 24 ore)

TLE

In scadenzaSource: Space-Track

Epoca: Sep 9, 2026, 18:39 UTC

1 40673U 95015FM  26252.77732225  .00000287  00000-0  14729-3 0  9995
2 40673  98.6952 267.8461 0023954 140.3073 219.9864 14.22736916592765

Traccia DMSP 5D-2 F13 DEB in tempo reale con AllMySat

Download on the App Store